Regional Weather Roundup
Issued by NWS Little Rock, AR

Home | Current Version | Previous Version | Graphics & Text | Print | Product List | Glossary On
Versions: 1 2 3 4 5 6 7 8 9 10 11 12 13 14 15 16 17 18 19 20 21 22 23 24 25 26 27 28 29 30 31 32 33 34 35 36 37 38 39 40 41 42 43 44 45 46 47 48 49 50
000
ASUS44 KLZK 301505
RWRLZK

WEATHER ROUNDUP FOR ARKANSAS
NATIONAL WEATHER SERVICE LITTLE ROCK AR
1000 AM CDT SUN AUG 30 2015

NOTE: "FAIR" INDICATES FEW OR NO CLOUDS BELOW 12,000 FEET WITH NO
SIGNIFICANT WEATHER AND/OR OBSTRUCTIONS TO VISIBILITY.

ARZ001-003-010-029-301600-
NORTHWEST ARKANSAS

CITY           SKY/WX    TMP DP  RH WIND       PRES   REMARKS
FAYETTEVILLE   PTSUNNY   77  71  82 NE3       30.06R
FORT SMITH     SUNNY     79  69  71 E8        30.00R
BENTONVILLE    PTSUNNY   75  68  78 SE9       30.06R
ROGERS         CLOUDY    76  70  82 SE8       30.06S
SILOAM SPGS    MOSUNNY   73  66  78 E9        30.03R
SPRINGDALE     PTSUNNY   75  70  83 E7G16     30.08R
$$

ARZ004-005-016-301600-
NORTH CENTRAL ARKANSAS

CITY           SKY/WX    TMP DP  RH WIND       PRES   REMARKS
BATESVILLE     PTSUNNY   79  70  73 CALM      30.06R
FLIPPIN        CLOUDY    70  64  83 CALM      30.05R
MTN HOME       CLOUDY    71  68  90 CALM      30.06R
$$

ARZ040-041-301600-
WEST CENTRAL ARKANSAS

CITY           SKY/WX    TMP DP  RH WIND       PRES   REMARKS
MENA           SUNNY     82  70  65 S3        30.04R HX  86
MOUNT IDA      SUNNY     82  69  64 CALM      30.01S HX  85
$$

ARZ009-017-025-026-028-301600-
NORTHEAST ARKANSAS

CITY           SKY/WX    TMP DP  RH WIND       PRES   REMARKS
JONESBORO      PTSUNNY   76  71  85 S9        30.06R
NEWPORT        CLOUDY    78  72  82 S7        30.07R
WALNUT RIDGE   MOSUNNY   79  70  73 S9        30.06R
BLYTHEVILLE    PTSUNNY   79  73  82 S8        30.07R
$$

ARZ022-023-033-042-044-301600-
CENTRAL ARKANSAS

CITY           SKY/WX    TMP DP  RH WIND       PRES   REMARKS
LITTLE ROCK    MOSUNNY   84  67  56 CALM      30.03S HX  86
N LITTLE ROCK  MOSUNNY   83  69  62 S5        30.03S HX  86
JACKSONVILLE   SUNNY     83  67  56 SE5       30.03R HX  86
SEARCY         MOSUNNY   81  71  71 SE5       30.06R HX  85
HOT SPRINGS    SUNNY     81  68  64 S3        30.04S
RUSSELLVILLE   SUNNY     81  68  64 E3        30.03R
$$

ARZ036-301600-
EAST ARKANSAS

CITY           SKY/WX    TMP DP  RH WIND       PRES   REMARKS
WEST MEMPHIS   CLOUDY    78  71  79 S6        30.05S
$$

ARZ050-053-066-070-073-301600-
SOUTHWEST ARKANSAS

CITY           SKY/WX    TMP DP  RH WIND       PRES   REMARKS
ARKADELPHIA    FAIR      84  70  63 S3        30.04R HX  88
CAMDEN         SUNNY     82  68  61 W3        30.03R HX  85
TEXARKANA      SUNNY     83  67  58 SW9       30.02S HX  85
EL DORADO      SUNNY     84  66  54 W7        30.04S HX  86
DE QUEEN       SUNNY     80  69  69 W3        30.00S
$$

ARZ056-057-069-301600-
SOUTHEAST ARKANSAS

CITY           SKY/WX    TMP DP  RH WIND       PRES   REMARKS
PINE BLUFF     SUNNY     81  68  64 VRB7      30.03S
STUTTGART      SUNNY     81  70  69 SE7       30.03S
MONTICELLO     SUNNY     83  67  58 S3        30.03S HX  85

$$




USA.gov is the U.S. government's official web portal to all federal, state and local government web resources and services.